Preview of NWS' New Version of Forecast
This preview is not operational and should not be used for support decisions.

Regional Weather Roundup (RWR)

Issued by Gray - Portland, ME (GYX)

                            
000
ASUS41 KGYX 181710
RWRGYX
WEATHER ROUNDUP FOR MAINE AND NEW HAMPSHIRE
NATIONAL WEATHER SERVICE GRAY ME
100 PM EDT MON MAR 18 2019

MEZ002-005-006-010-012-015-018-020-021-024-026-027-029-181800-
MAINE
  
CITY           SKY/WX    TMP DP  RH WIND       PRES   REMARKS
PORTLAND       FAIR      34   9  35 W10       30.19F                  
SANFORD        FAIR      33   6  32 W17G25    30.20S                  
BAR HARBOR     FAIR      31   7  36 VRB6G18   30.15R                  
WISCASSET      NOT AVBL                                               
ROCKLAND       FAIR      32   8  36 W10G23    30.17R                  
FRYEBURG       FAIR      32   3  29 W9        30.16F                  
LEWISTONAUBURN FAIR      30   7  37 W8        30.17S                  
AUGUSTA        FAIR      30   5  34 W8G18     30.15F                  
WATERVILLE     FAIR      31   8  38 W9G17     30.12S                  
BANGOR         FAIR      31   4  31 W14G21    30.13S                  
GREENVILLE       N/A     26  -2  29 NW15G22   30.01R WCI  14          
MILLINOCKET    FAIR      28   5  37 NW18G26   30.08S WCI  15          
HOULTON        CLOUDY    24   9  52 W10       30.03S WCI  14          
PRESQUE ISLE   FLURRIES  21   8  57 NW9G21    30.05S                  
FRENCHVILLE    CLOUDY    20   2  45 W14G21    29.99S WCI   7          
CARIBOU        CLOUDY    23  10  57 VRB5      30.02S                  
$$

NHZ002-005-008-009-011-012-014-181800-
NEW HAMPSHIRE
  
CITY           SKY/WX    TMP DP  RH WIND       PRES   REMARKS
PORTSMOUTH     MOSUNNY   36   2  23 W13G24    30.20S                  
ROCHESTER      FAIR      34   7  32 NW20      30.19S                  
NASHUA         FAIR      36   5  27 NW14G23   30.23S                  
MANCHESTER     FAIR      36   3  25 NW14G20   30.21S                  
CONCORD        FAIR      34   8  33 W16G22    30.21F                  
LACONIA        FAIR      31   6  35 NW16      30.19S WCI  20          
PLYMOUTH       FAIR      32   1  27 NW14G22   30.20S                  
BERLIN         FAIR      28   3  34 NW8G20    30.13R                  
WHITEFIELD     PTSUNNY   30   5  34 W10       30.16S                  
JAFFREY        FAIR      32   7  35 NW10G20   30.18F                  
KEENE          FAIR      34   4  28 N13       30.22S                  
LEBANON        FAIR      34   7  32 NW12G18   30.20F                  
MT WASHINGTON  MOSUNNY    1  -9  60 W46G53      N/A  WCI -28          
$$

VTZ005-007-008-181800-
VERMONT
  
CITY           SKY/WX    TMP DP  RH WIND       PRES   REMARKS
ST JOHNSBURY     N/A     28   3  34 MISG      30.18S                  
MONTPELIER     FAIR      27   6  41 W13       30.21S WCI  16          
BURLINGTON     PTSUNNY   32   8  36 W6        30.24S                  
$$

MAZ007-012-024-CTZ003-RIZ002-NYZ038-NYZ072-181800-
SOUTHERN NEW ENGLAND AND NY
  
CITY           SKY/WX    TMP DP  RH WIND       PRES   REMARKS
BOSTON         FAIR      40   8  26 W13       30.24S                  
WORCESTER      FAIR      34  11  38 W14       30.19S                  
NANTUCKET      FAIR      39  17  41 SW15      30.25S                  
PROVIDENCE     FAIR      41  13  31 W12G17    30.25S                  
HARTFORD       FAIR      41  10  28 NW9       30.25F                  
ALBANY         FAIR      40   8  26 W10G20    30.28S                  
NEW YORK CITY  FAIR      42  12  29 NW5       30.28F                  
$$

ANZ081-ANZ082-ANZ150-NHZ014-MEZ023>029-181800-
COASTAL MARINE OBSERVATIONS
  
STATION/POSITION TIME  TEMP    WIND        PRES    WAVE
                       AIR SEA DIR/SP/G            HT/PER
                 (UTC) (F)     (DEG/KT/KT) (MB)    (FT/S)
MOUNT DESERT ROC 1700   29     260/ 15/ 16 1021.4R
MATINICUS ROCK   1600   29     280/ 18/ 19 1021.3S
ISLE OF SHOALS   1600   31     280/ 13/ 15 1023.0R
CASHES LEDGE BUO 1650   33 39              1022.8R   3/ 5
$$

.............KEY..............
   WCI - WIND CHILL
   TC  - TEMPERATURE IN CELSIUS
   VSB - VISIBILITY IN MILES
   HX  - HEAT INDEX
   FAIR- INDICATES FEW OR NO CLOUDS BELOW 12,000 FT, WITH NO 
         SIGNIFICANT WEATHER AND/OR OBSTRUCTIONS TO VISIBILITY.